[[{"header":{"parameterUnit":"m.s-1","parameterCategory":1,"la1":30.2991,"la2":30.254,"lo1":-89.0895,"lo2":-89.0444,"dx":0.0017,"dy":0.0017,"nx":28,"ny":28,"refTime":"2022-11-07T09:00:00:Z","depth":0,"parameterNumber":2,"parameterNumberName":"U-component_of_WINDS"},"data":[0,0,0,0,0,0,0,0,0,0,0,0,0,0,0,0,0,0,0,0,0,0,0,0,0,0,0,0,0,0,0,0,0,0,0,0,0,0,0,0,0,0,0,0,0,0,0,0,0,0,0,0,0,0,0,0,0,0,-1.0722,-1.0722,0,-1.0712,-1.0712,-1.0712,-1.0656,-1.0655,-1.0653,-1.0652,-1.0644,-1.0645,-1.0646,0,0,0,0,0,0,0,0,0,0,0,0,0,-1.0694,-1.0694,-1.0722,-1.0722,-1.0722,-1.0712,-1.0712,-1.0712,-1.0656,-1.0654,-1.0653,-1.0651,-1.0644,-1.0645,-1.0646,0,0,0,0,0,0,0,0,0,0,0,0,0,-1.0697,-1.0695,-1.0722,-1.0693,-1.069,-1.0713,-1.0712,-1.0712,-1.0656,-1.0654,-1.0652,-1.065,-1.0643,-1.0645,-1.0647,-1.0697,0,0,-1.0651,-1.0652,0,0,0,0,0,0,0,0,-1.0697,-1.0698,-1.0697,-1.0695,-1.0692,-1.0683,-1.0699,-1.0707,-1.0657,-1.0669,-1.0652,-1.0649,-1.0659,-1.0659,-1.0662,-1.0697,-1.0697,-1.0652,-1.0653,-1.0653,-1.0654,0,0,0,0,0,0,0,-1.0697,-1.0699,-1.0718,-1.0697,-1.0694,-1.0681,-1.0679,-1.0701,-1.0676,-1.0668,-1.0664,-1.0663,-1.0657,-1.0661,-1.0661,-1.0697,-1.0652,-1.0653,-1.0654,-1.0655,-1.0773,-1.0775,0,0,0,0,0,0,-1.0701,-1.0699,-1.0719,-1.0718,-1.0689,-1.0683,-1.0681,-1.0688,-1.0675,-1.0671,-1.0665,-1.0661,-1.0659,-1.066,-1.0661,-1.0719,-1.0653,-1.0655,-1.0656,-1.0771,-1.0773,-1.0776,0,0,0,0,0,0,-1.07,-1.0703,-1.0719,-1.0707,-1.0708,-1.0685,-1.0694,-1.0689,-1.0692,-1.0673,-1.0669,-1.0673,-1.0657,-1.0659,-1.0689,-1.0718,-1.0655,-1.0657,-1.0768,-1.0771,-1.0774,-1.0837,0,0,0,0,0,0,-1.07,-1.0703,-1.0722,-1.0708,-1.0709,-1.0747,-1.0696,-1.069,-1.0695,-1.0689,-1.0679,-1.0676,-1.0656,-1.0686,-1.069,-1.0719,-1.0658,-1.0765,-1.077,-1.0773,-1.0832,-1.0842,-1.0851,0,0,0,0,0,-1.0699,-1.074,-1.0723,-1.0726,-1.0732,-1.0748,-1.0749,-1.0724,-1.0698,-1.0716,-1.0704,-1.0676,-1.0715,-1.069,-1.0694,-1.0724,-1.0763,-1.0768,-1.0773,-1.0828,-1.084,-1.085,0,0,0,0,0,0,-1.0759,-1.0738,-1.0719,-1.0757,-1.0755,-1.0739,-1.0762,-1.0738,-1.0744,-1.0738,-1.0708,-1.0706,-1.0741,-1.0735,-1.0708,-1.0772,-1.0734,-1.074,-1.0775,-1.0786,-1.0795,-1.0796,-1.066,0,0,0,0,0,-1.0777,-1.0791,-1.0772,-1.0808,-1.0808,-1.0785,-1.0791,-1.0772,-1.0769,-1.0768,-1.0758,-1.0757,-1.0769,-1.0777,-1.0787,-1.0831,-1.0828,-1.0854,-1.0863,-1.0871,-1.0876,-1.0899,-1.091,-1.0792,-1.0792,-1.0792,0,0,-1.0814,-1.0804,-1.0815,-1.082,-1.0816,-1.0832,-1.0785,-1.0804,-1.0816,-1.0772,-1.0799,-1.0792,-1.0788,-1.0826,-1.0842,-1.0822,-1.0908,-1.0877,-1.0883,-1.0884,-1.0906,-1.0917,-1.0927,-1.0795,-1.0794,-1.0794,0,0,-1.0889,-1.0883,-1.0912,-1.0908,-1.0903,-1.0888,-1.0895,-1.0882,-1.0875,-1.0902,-1.0869,-1.0883,-1.0904,-1.0903,-1.0905,-1.098,-1.0954,-1.0984,-1.1032,-1.1055,-1.1064,-1.1072,-1.1099,-1.1109,-1.0989,-1.0989,-1.0989,0,-1.0935,-1.0958,-1.093,-1.0951,-1.0954,-1.0914,-1.0943,-1.0942,-1.094,-1.0944,-1.0921,-1.0946,-1.0941,-1.0978,-1.0996,-1.0999,-1.1006,-1.0985,-1.1065,-1.1073,-1.108,-1.1105,-1.1115,-1.0993,-1.0993,-1.0992,-1.0992,0,-1.1016,-1.1032,-1.1056,-1.1054,-1.106,-1.1086,-1.1062,-1.1071,-1.1052,-1.1039,-1.1067,-1.1059,-1.1067,-1.1074,-1.1055,-1.1108,-1.1096,-1.107,-1.1031,-1.1095,-1.1118,-1.1128,-1.0998,-1.0997,-1.0996,-1.0995,0,0,-1.1129,-1.1111,-1.112,-1.1119,-1.111,-1.1122,-1.1146,-1.1152,-1.1161,-1.1161,-1.1181,-1.1199,-1.1174,-1.1177,-1.1158,-1.1178,-1.1238,-1.1149,-1.1149,-1.1166,-1.1296,-1.1316,-1.1327,-1.1221,-1.1223,-1.1224,-1.1296,0,-1.1201,-1.124,-1.1215,-1.1258,-1.1272,-1.1234,-1.1255,-1.1252,-1.124,-1.1252,-1.1239,-1.1253,-1.1219,-1.1221,-1.1239,-1.1227,-1.1264,-1.1221,-1.1239,-1.124,-1.1241,-1.1339,-1.136,-1.1429,-1.1305,-1.1306,-1.1307,0,-1.1291,-1.1294,-1.1338,-1.1325,-1.1331,-1.135,-1.1353,-1.1365,-1.136,-1.1351,-1.1353,-1.1329,-1.1352,-1.1313,-1.1345,-1.1317,-1.1322,-1.1318,-1.132,-1.1321,-1.1278,-1.1343,-1.145,-1.1461,-1.1321,-1.132,-1.1319,0,-1.1369,-1.1385,-1.1413,-1.1413,-1.1399,-1.1413,-1.1408,-1.1402,-1.1408,-1.1411,-1.1414,-1.1421,-1.1425,-1.1431,-1.1409,-1.1383,-1.1444,-1.1403,-1.1437,-1.1437,-1.1451,-1.1451,-1.1561,-1.1455,-1.1455,-1.1455,-1.1454,0,-1.1453,-1.1481,-1.1448,-1.1465,-1.1496,-1.1468,-1.1499,-1.149,-1.1485,-1.1501,-1.1468,-1.1484,-1.1454,-1.1467,-1.145,-1.1479,-1.1481,-1.1474,-1.1469,-1.1477,-1.1478,-1.148,-1.1475,-1.1457,-1.1457,-1.1456,-1.1456,0,-1.1546,-1.1525,-1.1553,-1.1537,-1.1534,-1.1557,-1.1544,-1.156,-1.1546,-1.1566,-1.1569,-1.1548,-1.1561,-1.154,-1.1551,-1.154,-1.158,-1.1567,-1.1581,-1.1577,-1.1612,-1.1609,-1.1728,-1.1742,-1.1627,-1.1628,-1.1629,0,-1.1601,-1.1622,-1.1608,-1.1615,-1.1612,-1.1625,-1.163,-1.1603,-1.1609,-1.1606,-1.1623,-1.1633,-1.1639,-1.1662,-1.1648,-1.1656,-1.1644,-1.1685,-1.1645,-1.1652,-1.1645,-1.1644,-1.1646,-1.1694,-1.1695,-1.1696,-1.1697,0,-1.17,-1.1689,-1.1697,-1.1701,-1.1708,-1.1711,-1.1711,-1.1719,-1.169,-1.17,-1.1712,-1.1717,-1.1728,-1.1739,-1.1743,-1.1739,-1.1714,-1.171,-1.1718,-1.1726,-1.1733,-1.173,-1.1603,-1.1707,-1.1706,-1.1706,-1.1705,-1.1705,-1.1776,-1.1793,-1.1785,-1.1796,-1.1793,-1.1794,-1.1808,-1.1795,-1.1805,-1.1811,-1.1794,-1.1811,-1.1806,-1.1809,-1.1808,-1.1821,-1.1803,-1.1815,-1.1818,-1.1821,-1.1827,-1.1731,-1.1821,-1.1821,-1.1821,-1.182,-1.182,0,-1.1874,-1.1867,-1.1877,-1.1878,-1.1886,-1.186,-1.1859,-1.1868,-1.1883,-1.188,-1.1887,-1.1901,-1.1912,-1.1898,-1.1906,-1.1919,-1.1908,-1.1922,-1.1921,-1.192,-1.1842,-1.1834,-1.1931,-1.1931,-1.1931,-1.1931,-1.1931,-1.1931,-1.1926,-1.1953,-1.194,-1.1966,-1.1959,-1.1974,-1.1975,-1.1976,-1.1974,-1.1991,-1.1999,-1.199,-1.1983,-1.199,-1.1998,-1.1994,-1.1999,-1.2017,-1.2009,-1.1937,-1.1926,-1.1916,-1.1908,-1.2019,-1.2019,-1.2086,-1.2087,-1.2087]},{"header":{"parameterUnit":"m.s-1","parameterCategory":1,"la1":30.2991,"la2":30.254,"lo1":-89.0895,"lo2":-89.0444,"dx":0.0017,"dy":0.0017,"nx":28,"ny":28,"refTime":"2022-11-07T09:00:00:Z","depth":0,"parameterNumber":3,"parameterNumberName":"V-component_of_WINDS"},"data":[0,0,0,0,0,0,0,0,0,0,0,0,0,0,0,0,0,0,0,0,0,0,0,0,0,0,0,0,0,0,0,0,0,0,0,0,0,0,0,0,0,0,0,0,0,0,0,0,0,0,0,0,0,0,0,0,0,0,-1.4665,-1.4665,0,-1.4671,-1.4671,-1.4671,-1.4671,-1.4671,-1.4671,-1.4671,-1.4675,-1.4676,-1.4676,0,0,0,0,0,0,0,0,0,0,0,0,0,-1.4653,-1.4653,-1.4665,-1.4665,-1.4665,-1.4671,-1.4671,-1.4671,-1.4671,-1.4671,-1.4671,-1.4671,-1.4675,-1.4676,-1.4676,0,0,0,0,0,0,0,0,0,0,0,0,0,-1.4658,-1.4653,-1.4665,-1.4666,-1.4666,-1.4671,-1.4671,-1.4671,-1.4671,-1.4671,-1.4671,-1.4671,-1.4675,-1.4676,-1.4676,-1.468,0,0,-1.4677,-1.4677,0,0,0,0,0,0,0,0,-1.4658,-1.4659,-1.4666,-1.4666,-1.4666,-1.467,-1.4668,-1.4674,-1.4671,-1.4669,-1.4671,-1.4671,-1.4674,-1.4674,-1.4675,-1.468,-1.468,-1.4677,-1.4677,-1.4677,-1.4677,0,0,0,0,0,0,0,-1.4657,-1.4658,-1.4667,-1.4666,-1.4666,-1.4666,-1.4666,-1.4669,-1.4672,-1.4669,-1.4669,-1.467,-1.4674,-1.4675,-1.4675,-1.468,-1.4677,-1.4677,-1.4677,-1.4677,-1.4686,-1.4686,0,0,0,0,0,0,-1.4657,-1.4658,-1.4667,-1.4668,-1.4662,-1.4666,-1.4667,-1.4669,-1.4672,-1.4672,-1.467,-1.467,-1.4675,-1.4675,-1.4676,-1.4679,-1.4677,-1.4677,-1.4677,-1.4686,-1.4686,-1.4686,0,0,0,0,0,0,-1.4657,-1.4658,-1.4667,-1.4663,-1.4664,-1.4666,-1.4669,-1.4669,-1.4671,-1.4673,-1.4673,-1.4671,-1.4675,-1.4675,-1.4678,-1.468,-1.4677,-1.4678,-1.4686,-1.4686,-1.4686,-1.4687,0,0,0,0,0,0,-1.4656,-1.4658,-1.466,-1.4663,-1.4664,-1.467,-1.4669,-1.4669,-1.4671,-1.4671,-1.4674,-1.4674,-1.4675,-1.4678,-1.4679,-1.468,-1.4678,-1.4686,-1.4686,-1.4686,-1.4687,-1.4687,-1.4688,0,0,0,0,0,-1.4656,-1.466,-1.466,-1.4661,-1.4667,-1.4671,-1.4671,-1.4672,-1.4671,-1.4673,-1.4674,-1.4674,-1.4679,-1.4678,-1.4679,-1.468,-1.4686,-1.4686,-1.4686,-1.4687,-1.4687,-1.4688,0,0,0,0,0,0,-1.4657,-1.4661,-1.4661,-1.4666,-1.4668,-1.4671,-1.4673,-1.4673,-1.4675,-1.4675,-1.4676,-1.4676,-1.4679,-1.468,-1.4679,-1.4683,-1.4682,-1.4683,-1.4683,-1.4683,-1.4683,-1.4683,-1.4678,0,0,0,0,0,-1.4658,-1.4661,-1.4664,-1.4668,-1.4669,-1.4671,-1.4672,-1.4673,-1.4675,-1.4676,-1.4677,-1.4679,-1.468,-1.4682,-1.4684,-1.4687,-1.4687,-1.4688,-1.4689,-1.4689,-1.4689,-1.469,-1.469,-1.4687,-1.4687,-1.4687,0,0,-1.466,-1.4662,-1.4664,-1.4668,-1.467,-1.4672,-1.4671,-1.4674,-1.4676,-1.4676,-1.4679,-1.468,-1.4681,-1.4684,-1.4686,-1.4685,-1.469,-1.4689,-1.4689,-1.4689,-1.469,-1.469,-1.469,-1.4687,-1.4687,-1.4687,0,0,-1.4664,-1.4667,-1.467,-1.4671,-1.4674,-1.4675,-1.4675,-1.4678,-1.4678,-1.4681,-1.4681,-1.4683,-1.4686,-1.4687,-1.4688,-1.4691,-1.4691,-1.4692,-1.4693,-1.4694,-1.4694,-1.4694,-1.4695,-1.4695,-1.4692,-1.4692,-1.4692,0,-1.4666,-1.467,-1.4672,-1.4674,-1.4676,-1.4676,-1.4678,-1.468,-1.4682,-1.4683,-1.4683,-1.4686,-1.4687,-1.469,-1.4691,-1.4692,-1.4692,-1.4692,-1.4694,-1.4694,-1.4694,-1.4695,-1.4695,-1.4692,-1.4692,-1.4692,-1.4692,0,-1.4672,-1.4675,-1.4677,-1.468,-1.4681,-1.4684,-1.4685,-1.4686,-1.4686,-1.4687,-1.4689,-1.469,-1.4692,-1.4693,-1.4693,-1.4695,-1.4694,-1.4694,-1.4693,-1.4695,-1.4695,-1.4695,-1.4692,-1.4692,-1.4692,-1.4692,0,0,-1.4678,-1.4681,-1.4681,-1.4682,-1.4684,-1.4686,-1.4688,-1.469,-1.4691,-1.4692,-1.4693,-1.4696,-1.4695,-1.4696,-1.4696,-1.4697,-1.4698,-1.4696,-1.4696,-1.4696,-1.4699,-1.4699,-1.47,-1.4698,-1.4698,-1.4698,-1.4699,0,-1.4682,-1.4687,-1.4687,-1.4691,-1.4693,-1.4692,-1.4694,-1.4694,-1.4695,-1.4696,-1.4696,-1.4697,-1.4697,-1.4697,-1.4698,-1.4698,-1.4699,-1.4698,-1.4698,-1.4698,-1.4698,-1.47,-1.47,-1.4702,-1.4699,-1.4699,-1.4699,0,-1.4688,-1.469,-1.4694,-1.4694,-1.4695,-1.4697,-1.4698,-1.4699,-1.47,-1.47,-1.47,-1.47,-1.4701,-1.47,-1.4701,-1.47,-1.47,-1.47,-1.47,-1.47,-1.4699,-1.47,-1.4702,-1.4702,-1.4699,-1.4699,-1.4699,0,-1.4691,-1.4694,-1.4697,-1.4697,-1.4699,-1.4699,-1.47,-1.47,-1.4701,-1.4702,-1.4702,-1.4702,-1.4703,-1.4703,-1.4702,-1.4702,-1.4703,-1.4702,-1.4702,-1.4702,-1.4703,-1.4703,-1.4705,-1.4703,-1.4703,-1.4703,-1.4703,0,-1.4696,-1.4698,-1.4698,-1.47,-1.4701,-1.4701,-1.4703,-1.4703,-1.4703,-1.4704,-1.4703,-1.4704,-1.4703,-1.4704,-1.4703,-1.4704,-1.4704,-1.4703,-1.4703,-1.4703,-1.4703,-1.4703,-1.4703,-1.4703,-1.4703,-1.4703,-1.4703,0,-1.47,-1.47,-1.4703,-1.4703,-1.4703,-1.4704,-1.4705,-1.4705,-1.4705,-1.4706,-1.4706,-1.4706,-1.4706,-1.4705,-1.4706,-1.4705,-1.4705,-1.4705,-1.4705,-1.4705,-1.4705,-1.4705,-1.4708,-1.4708,-1.4706,-1.4706,-1.4706,0,-1.4703,-1.4704,-1.4705,-1.4705,-1.4706,-1.4707,-1.4707,-1.4707,-1.4707,-1.4707,-1.4708,-1.4708,-1.4708,-1.4708,-1.4707,-1.4707,-1.4707,-1.4707,-1.4707,-1.4706,-1.4706,-1.4706,-1.4706,-1.4708,-1.4708,-1.4708,-1.4708,0,-1.4708,-1.4707,-1.4708,-1.4709,-1.4709,-1.471,-1.471,-1.471,-1.471,-1.471,-1.471,-1.471,-1.471,-1.471,-1.4709,-1.4709,-1.4708,-1.4708,-1.4708,-1.4708,-1.4708,-1.4707,-1.4706,-1.4708,-1.4708,-1.4708,-1.4708,-1.4708,-1.4711,-1.4712,-1.4712,-1.4713,-1.4713,-1.4713,-1.4713,-1.4713,-1.4713,-1.4713,-1.4712,-1.4712,-1.4712,-1.4711,-1.471,-1.471,-1.4709,-1.471,-1.471,-1.471,-1.4709,-1.4708,-1.471,-1.471,-1.471,-1.471,-1.471,0,-1.4715,-1.4715,-1.4715,-1.4716,-1.4716,-1.4715,-1.4715,-1.4715,-1.4715,-1.4715,-1.4715,-1.4714,-1.4714,-1.4713,-1.4712,-1.4712,-1.4711,-1.4711,-1.4711,-1.4711,-1.471,-1.471,-1.4712,-1.4712,-1.4712,-1.4712,-1.4712,-1.4712,-1.4717,-1.4718,-1.4718,-1.4719,-1.4718,-1.4719,-1.4718,-1.4718,-1.4718,-1.4717,-1.4717,-1.4716,-1.4715,-1.4714,-1.4713,-1.4713,-1.4712,-1.4713,-1.4712,-1.4711,-1.4711,-1.4711,-1.4711,-1.4713,-1.4713,-1.4713,-1.4713,-1.4713]}]]